Weather History for Delta, CO

Change the Weather History Date:

Wednesday, October 30, 2013

  Actual Average (KMTJ) Record (KMTJ)
Temperature  
Mean Temperature 42 °F 44 °F  
Max Temperature 49 °F 59 °F 73 °F (2008)
Min Temperature 35 °F 30 °F 21 °F (1999)
Degree Days  
Heating Degree Days 23 21  
Month to date heating degree days 444  
Since 1 July heating degree days 571  
Cooling Degree Days 0 0  
Month to date cooling degree days 0  
Year to date cooling degree days 643  
Moisture  
Dew Point 36 °F    
Average Humidity 81    
Maximum Humidity 95    
Minimum Humidity 52    
Precipitation  
Precipitation 0.01 in 0.03 in 0.21 in (2013)
Month to date precipitation 1.16  
Year to date precipitation 9.81  
Sea Level Pressure  
Sea Level Pressure 29.99 in    
Wind  
Wind Speed 4 mph (WSW)    
Max Wind Speed 15 mph    
Max Gust Speed 21 mph    
Visibility 10 miles    
Events Rain , Thunderstorm    
T = Trace of Precipitation, MM = Missing Value Source: NWS Daily Summary

Daily Weather History Graph

Daily Weather History Graph

Search for Another Location

Airport:

Trip Planner

Search our weather history database for the weather conditions in past years. The results will help you decide how hot, cold, wet, or windy it might be!

Date:

Astronomy

Oct. 30, 2013 Rise Set
Actual Time 7:37 AM MDT 6:13 PM MDT
Civil Twilight 7:09 AM MDT 6:41 PM MDT
Nautical Twilight 6:38 AM MDT 7:12 PM MDT
Astronomical Twilight 6:07 AM MDT 7:43 PM MDT
Moon 3:31 AM MDT (10/30) 3:58 PM MDT (10/30)
Length of Visible Light 11h 31m
Length of Day
10h 36m
Waning Crescent, 16% of the Moon is Illuminated
Oct 30
Waning Crescent
Nov 3
New
Nov 9
First Quarter
Nov 17
Full
Nov 25
Last Quarter

Hourly Weather History & Observations

Time (MDT) Temp. Windchill Dew Point Humidity Pressure Visibility Wind Dir Wind Speed Gust Speed Precip Events Conditions
12:15 AM 41.0 °F 37.1 °F 37.6 °F 88% 29.96 in 10.0 mi NE 5.8 mph - N/A   Mostly Cloudy
12:35 AM 41.4 °F 38.4 °F 38.3 °F 89% 29.96 in 10.0 mi ENE 4.6 mph - N/A   Overcast
12:55 AM 41.9 °F 40.0 °F 38.1 °F 86% 29.96 in 10.0 mi ENE 3.5 mph - N/A   Overcast
1:15 AM 41.5 °F - 38.5 °F 89% 29.96 in 10.0 mi Calm Calm - N/A   Overcast
1:35 AM 41.9 °F 35.0 °F 38.8 °F 89% 29.97 in 10.0 mi WSW 12.7 mph 18.4 mph N/A   Overcast
1:55 AM 39.7 °F 33.7 °F 36.0 °F 86% 29.97 in 10.0 mi WNW 9.2 mph - N/A   Overcast
2:15 AM 40.6 °F 38.6 °F 36.1 °F 84% 29.98 in 10.0 mi West 3.5 mph - N/A   Overcast
2:35 AM 40.1 °F 38.0 °F 36.5 °F 87% 29.97 in 10.0 mi WNW 3.5 mph - N/A   Overcast
2:55 AM 40.5 °F - 35.8 °F 83% 29.97 in 10.0 mi Calm Calm - N/A   Overcast
3:15 AM 40.6 °F - 36.7 °F 86% 29.96 in 10.0 mi Calm Calm - N/A   Overcast
3:35 AM 40.3 °F 36.3 °F 37.4 °F 89% 29.97 in 10.0 mi East 5.8 mph - N/A   Overcast
3:55 AM 39.9 °F 36.7 °F 37.6 °F 91% 29.97 in 10.0 mi East 4.6 mph - N/A   Overcast
4:15 AM 40.1 °F 36.9 °F 37.8 °F 91% 29.97 in 10.0 mi East 4.6 mph - N/A   Overcast
4:35 AM 40.1 °F - 37.8 °F 91% 29.97 in 10.0 mi Calm Calm - N/A   Overcast
4:55 AM 40.3 °F - 38.3 °F 93% 29.97 in 10.0 mi Calm Calm - N/A   Overcast
5:15 AM 40.5 °F - 38.3 °F 92% 29.97 in 10.0 mi Calm Calm - N/A   Overcast
5:35 AM 40.1 °F - 38.1 °F 93% 29.98 in 10.0 mi Calm Calm - N/A   Overcast
5:55 AM 40.1 °F - 37.9 °F 92% 29.98 in 10.0 mi Calm Calm - N/A   Overcast
6:15 AM 39.4 °F - 37.4 °F 93% 29.98 in 10.0 mi Calm Calm - N/A   Overcast
6:35 AM 39.0 °F - 36.9 °F 92% 29.99 in 10.0 mi Calm Calm - N/A   Overcast
6:55 AM 38.3 °F - 36.7 °F 94% 29.99 in 10.0 mi Calm Calm - N/A   Overcast
7:15 AM 38.3 °F - 36.7 °F 94% 29.99 in 10.0 mi Calm Calm - N/A   Overcast
7:35 AM 38.3 °F 35.9 °F 36.7 °F 94% 29.99 in 10.0 mi East 3.5 mph - N/A   Overcast
7:55 AM 38.1 °F 35.7 °F 36.7 °F 95% 29.99 in 10.0 mi East 3.5 mph - N/A   Overcast
8:15 AM 39.2 °F 37.0 °F 36.5 °F 90% 30.00 in 10.0 mi East 3.5 mph - N/A   Mostly Cloudy
8:35 AM 39.9 °F 37.8 °F 35.6 °F 85% 30.00 in 10.0 mi ENE 3.5 mph - N/A   Mostly Cloudy
8:55 AM 41.0 °F 38.0 °F 35.8 °F 82% 30.01 in 10.0 mi ENE 4.6 mph - N/A   Mostly Cloudy
9:15 AM 41.5 °F 38.6 °F 36.1 °F 81% 30.02 in 10.0 mi ESE 4.6 mph - N/A   Scattered Clouds
9:35 AM 42.1 °F 37.7 °F 34.7 °F 75% 30.01 in 10.0 mi ESE 6.9 mph - N/A   Clear
9:55 AM 43.0 °F 41.3 °F 34.3 °F 72% 30.01 in 10.0 mi East 3.5 mph - N/A   Clear
10:15 AM 42.6 °F - 34.9 °F 74% 30.01 in 10.0 mi Calm Calm - N/A   Scattered Clouds
10:35 AM 42.3 °F - 35.2 °F 76% 30.00 in 10.0 mi Calm Calm - N/A   Scattered Clouds
10:55 AM 42.6 °F - 35.6 °F 76% 30.00 in 10.0 mi Calm Calm - N/A   Scattered Clouds
11:15 AM 43.7 °F - 35.8 °F 74% 30.00 in 10.0 mi Calm Calm - N/A   Scattered Clouds
11:35 AM 44.8 °F 43.3 °F 36.5 °F 73% 30.00 in 10.0 mi ESE 3.5 mph - N/A   Scattered Clouds
11:55 AM 45.3 °F - 35.6 °F 69% 30.00 in 10.0 mi Calm Calm - N/A   Overcast
12:15 PM 45.0 °F 39.7 °F 35.1 °F 68% 30.00 in 10.0 mi South 10.4 mph 16.1 mph N/A   Overcast
12:35 PM 44.6 °F 40.7 °F 33.8 °F 66% 29.99 in 10.0 mi SE 6.9 mph - N/A Thunderstorm Overcast
12:55 PM 46.6 °F - 33.1 °F 59% 29.98 in 10.0 mi South 4.6 mph - N/A Thunderstorm Mostly Cloudy
1:15 PM 48.0 °F - 34.0 °F 58% 29.97 in 10.0 mi West 12.7 mph 17.3 mph N/A   Scattered Clouds
1:35 PM 49.1 °F - 32.0 °F 52% 29.96 in 10.0 mi West 8.1 mph - N/A   Mostly Cloudy
1:55 PM 46.4 °F 42.9 °F 32.0 °F 57% 29.96 in 10.0 mi NW 6.9 mph - N/A   Overcast
2:15 PM 47.1 °F - 32.4 °F 57% 29.96 in 10.0 mi WSW 5.8 mph - N/A Rain Light Rain
2:35 PM 45.7 °F 41.5 °F 35.8 °F 68% 29.95 in 10.0 mi SSW 8.1 mph - N/A   Overcast
2:55 PM 46.6 °F - 32.7 °F 59% 29.95 in 10.0 mi NW 13.8 mph 20.7 mph N/A   Overcast
3:15 PM 46.8 °F - 32.2 °F 57% 29.95 in 10.0 mi West 4.6 mph - N/A   Overcast
3:35 PM 46.2 °F 40.8 °F 34.5 °F 64% 29.95 in 10.0 mi WSW 11.5 mph - N/A   Overcast
3:55 PM 47.3 °F - 35.1 °F 62% 29.96 in 10.0 mi SW 12.7 mph - N/A   Mostly Cloudy
4:15 PM 45.1 °F 38.4 °F 36.3 °F 71% 29.96 in 10.0 mi WSW 15.0 mph - N/A   Mostly Cloudy
4:35 PM 44.6 °F 38.8 °F 36.7 °F 74% 29.96 in 10.0 mi SW 11.5 mph - N/A   Mostly Cloudy
4:55 PM 47.7 °F - 33.1 °F 57% 29.95 in 10.0 mi WNW 9.2 mph - N/A   Scattered Clouds
5:15 PM 47.7 °F - 31.6 °F 54% 29.96 in 10.0 mi SW 12.7 mph - N/A   Mostly Cloudy
6:55 PM 41.0 °F 37.1 °F 35.4 °F 81% 29.99 in 10.0 mi West 5.8 mph - N/A   Mostly Cloudy
7:15 PM 40.6 °F 36.7 °F 35.2 °F 81% 30.00 in 10.0 mi SW 5.8 mph - N/A   Mostly Cloudy
7:35 PM 40.1 °F 36.9 °F 35.2 °F 83% 30.00 in 10.0 mi SW 4.6 mph - N/A   Clear
7:55 PM 39.7 °F 36.5 °F 35.1 °F 83% 30.00 in 10.0 mi NW 4.6 mph - N/A   Scattered Clouds
8:15 PM 38.5 °F 36.1 °F 35.1 °F 87% 30.01 in 10.0 mi North 3.5 mph - N/A   Scattered Clouds
8:35 PM 37.0 °F 32.4 °F 34.2 °F 89% 30.02 in 10.0 mi NNE 5.8 mph - N/A   Scattered Clouds
8:55 PM 36.7 °F 32.0 °F 34.2 °F 91% 30.02 in 10.0 mi NE 5.8 mph - N/A   Mostly Cloudy
9:15 PM 36.5 °F 33.9 °F 34.0 °F 91% 30.02 in 10.0 mi ENE 3.5 mph - N/A   Scattered Clouds
9:35 PM 35.6 °F - 33.3 °F 91% 30.02 in 10.0 mi Calm Calm - N/A   Mostly Cloudy
9:55 PM 36.7 °F - 34.2 °F 91% 30.03 in 10.0 mi Calm Calm - N/A   Mostly Cloudy
10:15 PM 37.4 °F - 34.3 °F 89% 30.03 in 10.0 mi Calm Calm - N/A   Overcast
10:35 PM 37.4 °F - 34.9 °F 91% 30.03 in 10.0 mi Calm Calm - N/A   Overcast
10:55 PM 38.3 °F - 35.8 °F 91% 30.04 in 10.0 mi Calm Calm - N/A Rain Light Rain
11:15 PM 38.3 °F - 35.6 °F 90% 30.04 in 10.0 mi Calm Calm - 0.01 in Rain Light Rain
11:35 PM 38.1 °F - 35.8 °F 91% 30.04 in 10.0 mi Calm Calm - 0.01 in Rain Light Rain
11:55 PM 37.9 °F - 35.8 °F 92% 30.04 in 10.0 mi Calm Calm - 0.01 in   Overcast